EW5523 Weather Reports


Display with metric or nautical units.
time (UTC)temp
F
wind
direction
speed
MPH
gust
MPH
rain 1hr
in
rain 24hr
in
rain mn
in
humidity
%
barometer
mb
20260905070059 66 168 0.0 1.0 0.00 0.00 0.00 66 1009.6
20260905064616 65 183 0.0 1.0 0.00 0.00 0.00 65 1009.7
20260905063056 66 169 0.0 2.0 0.00 0.00 0.00 64 1009.5
20260905061603 65 143 0.0 4.0 0.00 0.00 0.00 65 1009.7
20260905060052 65 170 0.0 5.0 0.00 0.00 0.00 67 1009.8
20260905054634 63 135 0.0 0.0 0.00 0.00 0.00 73 1010.0
20260905053046 62 140 0.0 0.0 0.00 0.00 0.00 76 1010.1
20260905051541 61 116 0.0 0.0 0.00 0.00 0.00 79 1010.2
20260905050040 60 116 0.0 0.0 0.00 0.00 0.00 82 1010.1
20260905044539 60 116 0.0 0.0 0.00 0.00 0.00 79 1010.2
20260905043037 60 116 0.0 0.0 0.00 0.00 0.00 80 1010.3
20260905041538 60 116 0.0 0.0 0.00 0.00 0.00 83 1010.3
20260905040037 59 108 0.0 0.0 0.00 0.00 0.00 89 1010.2
20260905034528 58 81 0.0 0.0 0.00 0.00 0.00 91 1010.1
20260905033027 57 80 0.0 0.0 0.00 0.00 0.00 91 1010.2
20260905031526 57 80 0.0 0.0 0.00 0.00 0.00 92 1010.2
20260905030032 57 79 0.0 0.0 0.00 0.00 0.00 93 1010.4
20260905024524 57 76 0.0 0.0 0.00 0.00 0.00 93 1010.3
20260905023023 56 50 0.0 0.0 0.00 0.00 0.00 94 1010.5
20260905021527 56 45 0.0 0.0 0.00 0.00 0.00 94 1010.6
20260905020019 56 311 0.0 0.0 0.00 0.00 0.00 94 1010.4
20260905014517 56 305 0.0 0.0 0.00 0.00 0.00 93 1010.5
20260905013016 56 287 0.0 0.0 0.00 0.00 0.00 94 1010.6
20260905011520 56 286 0.0 0.0 0.00 0.00 0.00 93 1010.7
20260905010018 56 286 0.0 0.0 0.00 0.00 0.00 93 1010.8
20260905004513 56 283 0.0 1.0 0.00 0.00 0.00 94 1011.0
20260905003015 56 83 0.0 0.0 0.00 0.00 0.00 93 1010.9
20260905001512 56 79 0.0 0.0 0.00 0.00 0.00 93 1011.0
20260905000008 56 116 0.0 0.0 0.00 0.00 0.00 93 1011.4
20260904234508 56 226 0.0 0.0 0.00 0.00 0.00 94 1011.4
20260904233006 56 226 0.0 0.0 0.00 0.00 0.00 93 1011.5
20260904231509 57 226 0.0 0.0 0.00 0.00 0.00 93 1011.6
20260904230014 57 226 0.0 0.0 0.00 0.00 0.00 93 1011.7
20260904224504 56 226 0.0 0.0 0.00 0.00 0.00 94 1011.7
20260904223002 56 226 0.0 0.0 0.00 0.00 0.00 94 1011.8
20260904221502 56 226 0.0 0.0 0.00 0.00 0.00 94 1011.9
20260904220104 56 226 0.0 0.0 0.00 0.00 0.00 94 1012.0
20260904214600 56 226 0.0 0.0 0.00 0.00 0.00 94 1012.3
20260904213056 56 226 0.0 0.0 0.00 0.00 0.00 93 1012.5
20260904211554 57 226 0.0 0.0 0.00 0.00 0.00 93 1012.5
20260904210056 57 226 0.0 0.0 0.00 0.00 0.00 92 1012.7
20260904204551 57 226 0.0 0.0 0.00 0.00 0.00 92 1012.7
20260904203056 58 226 0.0 0.0 0.00 0.00 0.00 92 1012.8
20260904201550 58 226 0.0 0.0 0.00 0.00 0.00 92 1012.8
20260904200105 58 226 0.0 0.0 0.00 0.00 0.00 92 1012.9
20260904194551 58 226 0.0 0.0 0.00 0.00 0.00 92 1012.9
20260904193045 58 226 0.0 0.0 0.00 0.00 0.00 92 1012.9
20260904191545 58 226 0.0 0.0 0.00 0.00 0.00 92 1012.9
20260904190050 58 226 0.0 0.0 0.00 0.00 0.00 92 1013.0
20260904184544 58 226 0.0 0.0 0.00 0.00 0.00 92 1013.1
20260904183043 58 226 0.0 0.0 0.00 0.00 0.00 92 1013.1
20260904181543 58 226 0.0 0.0 0.00 0.00 0.00 90 1013.3
20260904180048 59 226 0.0 0.0 0.00 0.00 0.00 89 1013.2
20260904174543 59 226 0.0 0.0 0.00 0.00 0.00 89 1013.2
20260904173055 59 226 0.0 0.0 0.00 0.00 0.00 88 1013.3
20260904171546 60 226 0.0 0.0 0.00 0.00 0.00 86 1013.4
20260904170041 61 226 0.0 0.0 0.00 0.00 0.00 84 1013.4
20260904164540 61 226 0.0 0.0 0.00 0.00 0.00 83 1013.4
20260904163040 62 225 0.0 0.0 0.00 0.00 0.00 83 1013.4
20260904161540 62 208 0.0 0.0 0.00 0.00 0.00 84 1013.5
20260904160046 62 208 0.0 0.0 0.00 0.00 0.00 83 1013.4
20260904154540 62 200 0.0 0.0 0.00 0.00 0.00 84 1013.3
20260904153039 63 194 0.0 0.0 0.00 0.00 0.00 83 1013.2
20260904151539 63 194 0.0 0.0 0.00 0.00 0.00 83 1013.0
20260904150036 63 194 0.0 0.0 0.00 0.00 0.00 83 1013.0
20260904144536 64 235 0.0 0.0 0.00 0.00 0.00 83 1013.0
20260904143037 64 278 0.0 0.0 0.00 0.00 0.00 82 1012.8
20260904141542 65 190 0.0 5.0 0.00 0.00 0.00 79 1013.0
20260904140033 65 208 0.0 0.0 0.00 0.00 0.00 78 1013.0
20260904134550 66 168 0.0 3.0 0.00 0.00 0.00 75 1013.0
20260904133035 67 195 0.0 7.0 0.00 0.00 0.00 71 1013.0
20260904131533 71 163 0.0 5.0 0.00 0.00 0.00 65 1013.0
20260904130035 72 239 0.0 0.0 0.00 0.00 0.00 62 1012.6
20260904124532 72 195 0.0 0.0 0.00 0.00 0.00 64 1012.6
20260904123030 72 202 0.0 0.0 0.00 0.00 0.00 63 1012.9
20260904121530 72 214 0.0 3.0 0.00 0.00 0.00 64 1012.6
20260904120029 71 264 0.0 0.0 0.00 0.00 0.00 67 1012.7
20260904114530 71 264 0.0 0.0 0.00 0.00 0.00 66 1012.8
20260904113029 71 250 0.0 0.0 0.00 0.00 0.00 64 1013.0
20260904111528 72 259 0.0 4.0 0.00 0.00 0.00 62 1012.9
20260904110028 72 237 0.0 3.0 0.00 0.00 0.00 63 1013.0
20260904104527 73 203 0.0 0.0 0.00 0.00 0.00 62 1012.9
20260904103027 72 224 0.0 0.0 0.00 0.00 0.00 62 1013.1
20260904101527 72 209 0.0 6.0 0.00 0.00 0.00 62 1013.0
20260904100026 73 292 0.0 5.0 0.00 0.00 0.00 61 1013.0
20260904094539 73 205 0.0 8.0 0.00 0.00 0.00 61 1013.2
20260904093023 72 150 0.0 3.0 0.00 0.00 0.00 63 1013.1
20260904091523 72 216 0.0 5.0 0.00 0.00 0.00 62 1013.2
20260904090039 72 147 1.0 6.0 0.00 0.00 0.00 64 1013.2
20260904084522 72 193 0.0 5.0 0.00 0.00 0.00 64 1013.3
20260904083027 71 186 0.0 4.0 0.00 0.00 0.00 65 1013.2
20260904081528 71 191 1.0 6.0 0.00 0.00 0.00 66 1013.4
20260904080015 70 163 0.0 1.0 0.00 0.00 0.00 69 1013.5
20260904074517 69 134 0.0 4.0 0.00 0.00 0.00 70 1013.4
20260904073012 70 171 0.0 5.0 0.00 0.00 0.00 69 1013.3
20260904071512 69 162 0.0 0.0 0.00 0.00 0.00 70 1013.5